,,,PA_Meas_PMT16A,,PR_Meas_QMR101_102,,RH_Meas_QMH101,,SR_Meas_QMS101,,TA_Meas_QMH101,,GenWind,,GenWind,
date,time,status,PA,status,PR,status,RH,status,SR,status,TA,status,DirAvg,status,SpdAvg,
2011-04-17, 00:00:05,VALID,1004.08,VALID,0,INVALID,163.662,VALID,0,VALID,24.5017,VALID,19,VALID,0,
2011-04-17, 00:01:05,VALID,1004.1,VALID,0,INVALID,163.67,VALID,0,VALID,24.4804,VALID,19,VALID,0,
2011-04-17, 00:02:05,VALID,1004.07,VALID,0,INVALID,163.693,VALID,0,VALID,24.4998,VALID,19,VALID,0,
2011-04-17, 00:03:05,VALID,1004.08,VALID,0,INVALID,163.655,VALID,0,VALID,24.4998,VALID,19,VALID,0,
2011-04-17, 00:04:05,VALID,1004.07,VALID,0,INVALID,163.678,VALID,0,VALID,24.4998,VALID,19,VALID,0,
2011-04-17, 00:05:05,VALID,1004.06,VALID,0,INVALID,163.693,VALID,0,VALID,24.4998,VALID,19,VALID,0,
2011-04-17, 00:06:05,VALID,1004.06,VALID,0,INVALID,163.685,VALID,0,VALID,24.4998,VALID,19,VALID,0,
2011-04-17, 00:07:05,VALID,1004.09,VALID,0,INVALID,163.678,VALID,0.100563,VALID,24.5212,VALID,19,VALID,0,
2011-04-17, 00:08:05,VALID,1004.07,VALID,0,INVALID,163.693,VALID,0,VALID,24.5212,VALID,19,VALID,0,
2011-04-17, 00:09:05,VALID,1004.08,VALID,0,INVALID,163.662,VALID,0,VALID,24.4998,VALID,19,VALID,0,
2011-04-17, 00:10:05,VALID,1004.04,VALID,0,INVALID,163.708,VALID,0,VALID,24.4804,VALID,19,VALID,0,
2011-04-17, 00:11:05,VALID,1004.04,VALID,0,INVALID,163.678,VALID,0,VALID,24.5017,VALID,19,VALID,0,
2011-04-17, 00:12:05,VALID,1004.03,VALID,0,INVALID,163.67,VALID,0,VALID,24.4609,VALID,19,VALID,0,
2011-04-17, 00:13:05,VALID,1004.02,VALID,0,INVALID,163.685,VALID,0,VALID,24.4414,VALID,19,VALID,0,
2011-04-17, 00:14:05,VALID,1003.97,VALID,0,INVALID,163.67,VALID,0,VALID,24.4609,VALID,19,VALID,0,
2011-04-17, 00:15:05,VALID,1003.92,VALID,0,INVALID,163.678,VALID,0,VALID,24.4201,VALID,19,VALID,0.371484,
2011-04-17, 00:16:05,VALID,1003.89,VALID,0,INVALID,163.67,VALID,0.100563,VALID,24.3812,VALID,19,VALID,0.396875,
2011-04-17, 00:17:05,VALID,1003.88,VALID,0,INVALID,163.685,VALID,0.100563,VALID,24.4025,VALID,19,VALID,0.434375,
2011-04-17, 00:18:05,VALID,1003.86,VALID,0,INVALID,163.678,VALID,0.100563,VALID,24.3617,VALID,19,VALID,0.471484,
2011-04-17, 00:19:05,VALID,1003.87,VALID,0,INVALID,163.708,VALID,0.100563,VALID,24.3617,VALID,19,VALID,0.487109,
2011-04-17, 00:20:05,VALID,1003.86,VALID,0,INVALID,163.67,VALID,0,VALID,24.3441,VALID,18,VALID,0.526953,
2011-04-17, 00:21:05,VALID,1003.87,VALID,0,INVALID,163.701,VALID,0.100563,VALID,24.3033,VALID,15,VALID,0.469531,
2011-04-17, 00:22:05,VALID,1003.86,VALID,0,INVALID,163.678,VALID,0.100563,VALID,24.3246,VALID,15,VALID,0.4375,
2011-04-17, 00:23:05,VALID,1003.86,VALID,0,INVALID,163.708,VALID,0,VALID,24.3246,VALID,15,VALID,0.282031,
2011-04-17, 00:24:05,VALID,1003.86,VALID,0,INVALID,163.693,VALID,0.100563,VALID,24.3246,VALID,14,VALID,0.275,
2011-04-17, 00:25:05,VALID,1003.84,VALID,0,INVALID,163.701,VALID,0.100563,VALID,24.282,VALID,13,VALID,0.252344,
2011-04-17, 00:26:05,VALID,1003.85,VALID,0,INVALID,163.67,VALID,0.100563,VALID,24.3033,VALID,13,VALID,0.189063,
2011-04-17, 00:27:05,VALID,1003.87,VALID,0,INVALID,163.662,VALID,0.100563,VALID,24.3246,VALID,13,VALID,0.1625,
2011-04-17, 00:28:04,VALID,1003.85,VALID,0,INVALID,163.678,VALID,0.100563,VALID,24.2857,VALID,13,VALID,0.373437,
2011-04-17, 00:29:04,VALID,1003.81,VALID,0,INVALID,163.67,VALID,0,VALID,24.2857,VALID,13,VALID,0.601953,
2011-04-17, 00:30:04,VALID,1003.81,VALID,0,INVALID,163.708,VALID,0.100563,VALID,24.2468,VALID,13,VALID,0.608594,
2011-04-17, 00:31:04,VALID,1003.83,VALID,0,INVALID,163.693,VALID,0.100563,VALID,24.2255,VALID,13,VALID,0.749219,
2011-04-17, 00:32:04,VALID,1003.8,VALID,0,INVALID,163.693,VALID,0.100563,VALID,24.2273,VALID,1,VALID,0.638672,
2011-04-17, 00:33:04,VALID,1003.78,VALID,0,INVALID,163.731,VALID,0.100563,VALID,24.2255,VALID,1,VALID,0.500781,
2011-04-17, 00:34:04,VALID,1003.76,VALID,0,INVALID,163.701,VALID,0.100563,VALID,24.2468,VALID,1,VALID,0.51875,
2011-04-17, 00:35:04,VALID,1003.77,VALID,0,INVALID,163.693,VALID,0.100563,VALID,24.206,VALID,1,VALID,0.502734,
2011-04-17, 00:36:04,VALID,1003.73,VALID,0,INVALID,163.708,VALID,0.100563,VALID,24.2291,VALID,1,VALID,0.560156,
2011-04-17, 00:37:04,VALID,1003.76,VALID,0,INVALID,163.693,VALID,0.100563,VALID,24.2273,VALID,1,VALID,0.421484,
2011-04-17, 00:38:04,VALID,1003.76,VALID,0,INVALID,163.731,VALID,0,VALID,24.206,VALID,1,VALID,0.378516,
2011-04-17, 00:39:04,VALID,1003.76,VALID,0,INVALID,163.693,VALID,0.100563,VALID,24.1865,VALID,1,VALID,0.364062,
2011-04-17, 00:40:04,VALID,1003.78,VALID,0,INVALID,163.701,VALID,0.100563,VALID,24.1884,VALID,1,VALID,0.408594,
2011-04-17, 00:41:04,VALID,1003.82,VALID,0,INVALID,163.723,VALID,0.100563,VALID,24.1689,VALID,1,VALID,0.286719,
2011-04-17, 00:42:04,VALID,1003.83,VALID,0,INVALID,163.731,VALID,0,VALID,24.1689,VALID,1,VALID,0.259766,
2011-04-17, 00:43:04,VALID,1003.85,VALID,0,INVALID,163.708,VALID,0,VALID,24.1707,VALID,1,VALID,0.245703,
2011-04-17, 00:44:04,VALID,1003.82,VALID,0,INVALID,163.693,VALID,0.100563,VALID,24.1689,VALID,1,VALID,0.353906,
2011-04-17, 00:45:04,VALID,1003.84,VALID,0,INVALID,163.701,VALID,0.100563,VALID,24.1476,VALID,1,VALID,0.233594,
2011-04-17, 00:46:04,VALID,1003.83,VALID,0,INVALID,163.693,VALID,0,VALID,24.1494,VALID,1,VALID,0.2875,
2011-04-17, 00:47:04,VALID,1003.81,VALID,0,INVALID,163.739,VALID,0,VALID,24.1494,VALID,1,VALID,0.299219,
2011-04-17, 00:48:04,VALID,1003.82,VALID,0,INVALID,163.723,VALID,0.100563,VALID,24.13,VALID,1,VALID,0.214453,
2011-04-17, 00:49:04,VALID,1003.8,VALID,0,INVALID,163.693,VALID,0.100563,VALID,24.13,VALID,1,VALID,0.389844,
2011-04-17, 00:50:04,VALID,1003.79,VALID,0,INVALID,163.693,VALID,0.100563,VALID,24.0892,VALID,1,VALID,0.362891,
2011-04-17, 00:51:04,VALID,1003.75,VALID,0,INVALID,163.716,VALID,0.100563,VALID,24.13,VALID,1,VALID,0.415234,
2011-04-17, 00:52:04,VALID,1003.77,VALID,0,INVALID,163.701,VALID,0.100563,VALID,24.13,VALID,1,VALID,0.266016,
2011-04-17, 00:53:04,VALID,1003.77,VALID,0,INVALID,163.708,VALID,0.100563,VALID,24.13,VALID,1,VALID,0.402344,
2011-04-17, 00:54:04,VALID,1003.76,VALID,0,INVALID,163.708,VALID,0,VALID,24.1513,VALID,1,VALID,0.377344,
2011-04-17, 00:55:04,VALID,1003.76,VALID,0,INVALID,163.731,VALID,0.100563,VALID,24.13,VALID,1,VALID,0.353516,
2011-04-17, 00:56:04,VALID,1003.79,VALID,0,INVALID,163.701,VALID,0.100563,VALID,24.13,VALID,1,VALID,0.411328,
2011-04-17, 00:57:04,VALID,1003.77,VALID,0,INVALID,163.716,VALID,0.100563,VALID,24.1087,VALID,8,VALID,0.578516,
2011-04-17, 00:58:04,VALID,1003.77,VALID,0,INVALID,163.723,VALID,0.100563,VALID,24.1087,VALID,15,VALID,0.386719,
2011-04-17, 00:59:04,VALID,1003.79,VALID,0,INVALID,163.723,VALID,0,VALID,24.091,VALID,15,VALID,0.334766,
2011-04-17, 01:00:04,VALID,1003.79,VALID,0,INVALID,163.723,VALID,0.100563,VALID,24.1105,VALID,15,VALID,0.303906,
2011-04-17, 01:01:04,VALID,1003.78,VALID,0,INVALID,163.708,VALID,0,VALID,24.091,VALID,15,VALID,0.348437,
2011-04-17, 01:02:04,VALID,1003.8,VALID,0,INVALID,163.708,VALID,0,VALID,24.0716,VALID,15,VALID,0.542969,
2011-04-17, 01:03:04,VALID,1003.77,VALID,0,INVALID,163.716,VALID,0,VALID,24.091,VALID,15,VALID,0.443359,
2011-04-17, 01:04:04,VALID,1003.76,VALID,0,INVALID,163.708,VALID,0,VALID,24.091,VALID,15,VALID,0.360547,
2011-04-17, 01:05:04,VALID,1003.77,VALID,0,INVALID,163.701,VALID,0,VALID,24.0716,VALID,15,VALID,0.288672,
2011-04-17, 01:06:04,VALID,1003.73,VALID,0,INVALID,163.701,VALID,0,VALID,24.0521,VALID,15,VALID,0.192188,
2011-04-17, 01:07:04,VALID,1003.7,VALID,0,INVALID,163.708,VALID,0,VALID,24.0716,VALID,15,VALID,0.0582031,
2011-04-17, 01:08:04,VALID,1003.68,VALID,0,INVALID,163.739,VALID,0,VALID,24.0716,VALID,15,VALID,0,
2011-04-17, 01:09:04,VALID,1003.64,VALID,0,INVALID,163.708,VALID,0,VALID,24.0929,VALID,15,VALID,0,
2011-04-17, 01:10:04,VALID,1003.64,VALID,0,INVALID,163.708,VALID,0,VALID,24.0521,VALID,15,VALID,0,
2011-04-17, 01:11:04,VALID,1003.62,VALID,0,INVALID,163.708,VALID,0,VALID,24.0521,VALID,15,VALID,0,
2011-04-17, 01:12:04,VALID,1003.62,VALID,0,INVALID,163.701,VALID,0,VALID,24.0734,VALID,15,VALID,0.0832031,
2011-04-17, 01:13:04,VALID,1003.6,VALID,0,INVALID,163.723,VALID,0,VALID,24.0521,VALID,15,VALID,0.45,
2011-04-17, 01:14:04,VALID,1003.59,VALID,0,INVALID,163.723,VALID,0,VALID,24.0132,VALID,15,VALID,0.309375,
2011-04-17, 01:15:04,VALID,1003.59,VALID,0,INVALID,163.701,VALID,0,VALID,24.0132,VALID,15,VALID,0.341406,
2011-04-17, 01:16:04,VALID,1003.55,VALID,0,INVALID,163.739,VALID,0,VALID,23.9937,VALID,15,VALID,0.402344,
2011-04-17, 01:17:04,VALID,1003.58,VALID,0,INVALID,163.731,VALID,0,VALID,23.9742,VALID,15,VALID,0.580469,
2011-04-17, 01:18:04,VALID,1003.58,VALID,0,INVALID,163.701,VALID,0,VALID,23.953,VALID,15,VALID,0.410547,
2011-04-17, 01:19:04,VALID,1003.55,VALID,0,INVALID,163.716,VALID,0.100563,VALID,23.9937,VALID,15,VALID,0.288281,
2011-04-17, 01:20:04,VALID,1003.53,VALID,0,INVALID,163.716,VALID,0.100563,VALID,24.0132,VALID,15,VALID,0.339453,
2011-04-17, 01:21:04,VALID,1003.53,VALID,0,INVALID,163.716,VALID,0.100563,VALID,23.9742,VALID,15,VALID,0.298438,
2011-04-17, 01:22:04,VALID,1003.54,VALID,0,INVALID,163.716,VALID,0.100563,VALID,23.9742,VALID,15,VALID,0.0632813,
2011-04-17, 01:23:04,VALID,1003.49,VALID,0,INVALID,163.701,VALID,0,VALID,23.9742,VALID,15,VALID,0,
2011-04-17, 01:24:04,VALID,1003.49,VALID,0,INVALID,163.708,VALID,0.100563,VALID,23.9335,VALID,15,VALID,0,
2011-04-17, 01:25:04,VALID,1003.49,VALID,0,INVALID,163.716,VALID,0,VALID,23.953,VALID,15,VALID,0,
2011-04-17, 01:26:04,VALID,1003.49,VALID,0,INVALID,163.739,VALID,0.100563,VALID,23.9724,VALID,15,VALID,0.214062,
2011-04-17, 01:27:04,VALID,1003.47,VALID,0,INVALID,163.708,VALID,0,VALID,23.9724,VALID,15,VALID,0.216016,
2011-04-17, 01:28:04,VALID,1003.49,VALID,0,INVALID,163.685,VALID,0.100563,VALID,23.9724,VALID,15,VALID,0.163672,
2011-04-17, 01:29:04,VALID,1003.46,VALID,0,INVALID,163.701,VALID,0,VALID,23.9955,VALID,15,VALID,0.217969,
2011-04-17, 01:30:04,VALID,1003.47,VALID,0,INVALID,163.739,VALID,0,VALID,23.9742,VALID,15,VALID,0.307813,
2011-04-17, 01:31:04,VALID,1003.46,VALID,0,INVALID,163.731,VALID,0,VALID,23.9548,VALID,15,VALID,0.292969,
2011-04-17, 01:32:04,VALID,1003.49,VALID,0,INVALID,163.746,VALID,0,VALID,23.9548,VALID,15,VALID,0.380078,
2011-04-17, 01:33:04,VALID,1003.47,VALID,0,INVALID,163.731,VALID,0,VALID,23.9548,VALID,15,VALID,0.462109,
2011-04-17, 01:34:04,VALID,1003.47,VALID,0,INVALID,163.754,VALID,0,VALID,23.9548,VALID,15,VALID,0.533984,
2011-04-17, 01:35:04,VALID,1003.5,VALID,0,INVALID,163.716,VALID,0,VALID,23.9371,VALID,15,VALID,0.500391,
2011-04-17, 01:36:04,VALID,1003.5,VALID,0,INVALID,163.746,VALID,0,VALID,23.9177,VALID,15,VALID,0.395312,
2011-04-17, 01:37:04,VALID,1003.49,VALID,0,INVALID,163.723,VALID,0,VALID,23.8982,VALID,15,VALID,0.071875,
2011-04-17, 01:38:04,VALID,1003.48,VALID,0,INVALID,163.723,VALID,0,VALID,23.8982,VALID,15,VALID,0,
2011-04-17, 01:39:04,VALID,1003.48,VALID,0,INVALID,163.731,VALID,0,VALID,23.8964,VALID,15,VALID,0.275391,
2011-04-17, 01:40:04,VALID,1003.46,VALID,0,INVALID,163.716,VALID,0,VALID,23.8982,VALID,15,VALID,0.322656,
2011-04-17, 01:41:04,VALID,1003.47,VALID,0,INVALID,163.716,VALID,0,VALID,23.8769,VALID,15,VALID,0.06875,
2011-04-17, 01:42:04,VALID,1003.5,VALID,0,INVALID,163.731,VALID,0,VALID,23.9177,VALID,15,VALID,0.146484,
2011-04-17, 01:43:04,VALID,1003.49,VALID,0,INVALID,163.723,VALID,0,VALID,23.9177,VALID,15,VALID,0,
2011-04-17, 01:44:04,VALID,1003.5,VALID,0,INVALID,163.723,VALID,0.100563,VALID,23.914,VALID,15,VALID,0,
2011-04-17, 01:45:04,VALID,1003.49,VALID,0,INVALID,163.723,VALID,0,VALID,23.914,VALID,15,VALID,0.0988281,
2011-04-17, 01:46:04,VALID,1003.49,VALID,0,INVALID,163.716,VALID,0,VALID,23.9548,VALID,15,VALID,0.164844,
2011-04-17, 01:47:04,VALID,1003.52,VALID,0,INVALID,163.708,VALID,0,VALID,23.8946,VALID,15,VALID,0.312891,
2011-04-17, 01:48:04,VALID,1003.47,VALID,0,INVALID,163.716,VALID,0.100563,VALID,23.8964,VALID,15,VALID,0.247656,
2011-04-17, 01:49:04,VALID,1003.46,VALID,0,INVALID,163.723,VALID,0,VALID,23.9159,VALID,15,VALID,0.191016,
2011-04-17, 01:50:04,VALID,1003.46,VALID,0,INVALID,163.723,VALID,0.100563,VALID,23.8751,VALID,15,VALID,0,
2011-04-17, 01:51:04,VALID,1003.46,VALID,0,INVALID,163.731,VALID,0,VALID,23.8751,VALID,15,VALID,0,
2011-04-17, 01:52:04,VALID,1003.44,VALID,0,INVALID,163.739,VALID,0,VALID,23.9159,VALID,15,VALID,0,
2011-04-17, 01:53:04,VALID,1003.45,VALID,0,INVALID,163.708,VALID,0,VALID,23.9371,VALID,15,VALID,0,
2011-04-17, 01:54:04,VALID,1003.45,VALID,0,INVALID,163.723,VALID,0.100563,VALID,23.9159,VALID,15,VALID,0.0105469,
2011-04-17, 01:55:04,VALID,1003.47,VALID,0,INVALID,163.708,VALID,0.100563,VALID,23.9335,VALID,15,VALID,0.299219,
2011-04-17, 01:56:04,VALID,1003.5,VALID,0,INVALID,163.708,VALID,0.100563,VALID,23.9353,VALID,15,VALID,0.307813,
2011-04-17, 01:57:04,VALID,1003.51,VALID,0,INVALID,163.723,VALID,0,VALID,23.8946,VALID,15,VALID,0.224219,
2011-04-17, 01:58:04,VALID,1003.51,VALID,0,INVALID,163.716,VALID,0.100563,VALID,23.8946,VALID,15,VALID,0.124609,
2011-04-17, 01:59:04,VALID,1003.53,VALID,0,INVALID,163.716,VALID,0,VALID,23.8964,VALID,15,VALID,0,
2011-04-17, 02:00:04,VALID,1003.54,VALID,0,INVALID,163.708,VALID,0,VALID,23.9371,VALID,15,VALID,0,
2011-04-17, 02:01:04,VALID,1003.55,VALID,0,INVALID,163.716,VALID,0,VALID,23.9566,VALID,15,VALID,0.429688,
2011-04-17, 02:02:04,VALID,1003.54,VALID,0,INVALID,163.708,VALID,0,VALID,23.9742,VALID,132,VALID,0.720703,
2011-04-17, 02:03:04,VALID,1003.57,VALID,0,INVALID,163.731,VALID,0,VALID,23.9937,VALID,159,VALID,0.733203,
2011-04-17, 02:04:04,VALID,1003.62,VALID,0,INVALID,163.701,VALID,0,VALID,24.0326,VALID,168,VALID,1.04102,
2011-04-17, 02:05:04,VALID,1003.62,VALID,0,INVALID,163.701,VALID,0,VALID,24.0716,VALID,195,VALID,0.880078,
2011-04-17, 02:06:04,VALID,1003.59,VALID,0,INVALID,163.716,VALID,0,VALID,24.1318,VALID,282,VALID,1.51563,
2011-04-17, 02:07:04,VALID,1003.56,VALID,0,INVALID,163.708,VALID,0,VALID,24.1689,VALID,145,VALID,0.941016,
2011-04-17, 02:08:04,VALID,1003.52,VALID,0,INVALID,163.693,VALID,0,VALID,24.2681,VALID,173,VALID,0.625,
2011-04-17, 02:09:04,VALID,1003.5,VALID,0,INVALID,163.678,VALID,0,VALID,24.3246,VALID,176,VALID,1.36563,
2011-04-17, 02:10:04,VALID,1003.54,VALID,0,INVALID,163.685,VALID,0,VALID,24.4238,VALID,151,VALID,1.25117,
2011-04-17, 02:11:04,VALID,1003.42,VALID,0,INVALID,163.685,VALID,0,VALID,24.4804,VALID,319,VALID,1.80469,
2011-04-17, 02:12:04,VALID,1003.43,VALID,0,INVALID,163.655,VALID,0,VALID,24.599,VALID,178,VALID,2.13125,
2011-04-17, 02:13:04,VALID,1003.41,VALID,0,INVALID,163.678,VALID,0,VALID,24.7159,VALID,189,VALID,2.20039,
2011-04-17, 02:14:04,VALID,1003.41,VALID,0,INVALID,163.647,VALID,0,VALID,24.8308,VALID,142,VALID,1.29062,
2011-04-17, 02:15:04,VALID,1003.36,VALID,0,INVALID,163.647,VALID,0,VALID,24.9282,VALID,237,VALID,2.08281,
2011-04-17, 02:16:04,VALID,1003.34,VALID,0,INVALID,163.632,VALID,0.100563,VALID,25.006,VALID,222,VALID,2.84141,
2011-04-17, 02:17:04,VALID,1003.34,VALID,0,INVALID,163.624,VALID,0.100563,VALID,25.1034,VALID,216,VALID,0.910937,
2011-04-17, 02:18:04,VALID,1003.32,VALID,0,INVALID,163.617,VALID,0.100563,VALID,25.1618,VALID,288,VALID,0.767578,
2011-04-17, 02:19:04,VALID,1003.32,VALID,0,INVALID,163.617,VALID,0.100563,VALID,25.1813,VALID,196,VALID,1.92813,
2011-04-17, 02:20:04,VALID,1003.32,VALID,0,INVALID,163.655,VALID,0,VALID,25.2007,VALID,160,VALID,0.750391,
2011-04-17, 02:21:04,VALID,1003.26,VALID,0,INVALID,163.624,VALID,0,VALID,25.2202,VALID,174,VALID,2.18047,
2011-04-17, 02:22:04,VALID,1003.26,VALID,0,INVALID,163.632,VALID,0,VALID,25.2378,VALID,169,VALID,0.974219,
2011-04-17, 02:23:04,VALID,1003.24,VALID,0,INVALID,163.609,VALID,0,VALID,25.2786,VALID,167,VALID,1.35195,
2011-04-17, 02:24:04,VALID,1003.24,VALID,0,INVALID,163.617,VALID,0.100563,VALID,25.3195,VALID,148,VALID,1.86953,
2011-04-17, 02:25:04,VALID,1003.24,VALID,0,INVALID,163.632,VALID,0.100563,VALID,25.2572,VALID,188,VALID,3.00508,
2011-04-17, 02:26:04,VALID,1003.27,VALID,0,INVALID,163.647,VALID,0,VALID,25.2786,VALID,173,VALID,1.82734,
2011-04-17, 02:27:04,VALID,1003.28,VALID,0,INVALID,163.647,VALID,0.100563,VALID,25.2767,VALID,191,VALID,0.692578,
2011-04-17, 02:28:04,VALID,1003.3,VALID,0,INVALID,163.639,VALID,0.100563,VALID,25.2981,VALID,214,VALID,1.91016,
2011-04-17, 02:29:04,VALID,1003.29,VALID,0,INVALID,163.617,VALID,0.100563,VALID,25.2981,VALID,186,VALID,1.69609,
2011-04-17, 02:30:04,VALID,1003.29,VALID,0,INVALID,163.624,VALID,0,VALID,25.2806,VALID,184,VALID,1.92773,
2011-04-17, 02:31:04,VALID,1003.27,VALID,0,INVALID,163.632,VALID,0,VALID,25.3,VALID,227,VALID,1.70898,
2011-04-17, 02:32:04,VALID,1003.28,VALID,0,INVALID,163.624,VALID,0,VALID,25.2786,VALID,186,VALID,0.547266,
2011-04-17, 02:33:04,VALID,1003.32,VALID,0,INVALID,163.647,VALID,0,VALID,25.2786,VALID,175,VALID,1.86875,
2011-04-17, 02:34:04,VALID,1003.31,VALID,0,INVALID,163.624,VALID,0,VALID,25.2981,VALID,165,VALID,1.29023,
2011-04-17, 02:35:04,VALID,1003.27,VALID,0,INVALID,163.632,VALID,0,VALID,25.2767,VALID,187,VALID,2.31328,
2011-04-17, 02:36:04,VALID,1003.24,VALID,0,INVALID,163.647,VALID,0.100563,VALID,25.3176,VALID,184,VALID,1.06758,
2011-04-17, 02:37:04,VALID,1003.21,VALID,0,INVALID,163.624,VALID,0,VALID,25.3195,VALID,196,VALID,0.863672,
2011-04-17, 02:38:04,VALID,1003.15,VALID,0,INVALID,163.609,VALID,0,VALID,25.2786,VALID,182,VALID,2.44805,
2011-04-17, 02:39:04,VALID,1003.13,VALID,0,INVALID,163.617,VALID,0,VALID,25.2592,VALID,198,VALID,1.14883,
2011-04-17, 02:40:04,VALID,1003.11,VALID,0,INVALID,163.609,VALID,0,VALID,25.2786,VALID,150,VALID,1.15313,
2011-04-17, 02:41:04,VALID,1003.07,VALID,0,INVALID,163.647,VALID,0,VALID,25.2786,VALID,167,VALID,1.25742,
2011-04-17, 02:42:04,VALID,1003.05,VALID,0,INVALID,163.655,VALID,0,VALID,25.2806,VALID,167,VALID,1.11094,
2011-04-17, 02:43:04,VALID,1003.05,VALID,0,INVALID,163.594,VALID,0,VALID,25.2806,VALID,143,VALID,0.914063,
2011-04-17, 02:44:04,VALID,1003.05,VALID,0,INVALID,163.624,VALID,0.100563,VALID,25.2786,VALID,170,VALID,1.43359,
2011-04-17, 02:45:04,VALID,1003.07,VALID,0,INVALID,163.647,VALID,0,VALID,25.2981,VALID,126,VALID,0.569922,
2011-04-17, 02:46:04,VALID,1003.04,VALID,0,INVALID,163.609,VALID,0.100563,VALID,25.2592,VALID,193,VALID,1.56602,
2011-04-17, 02:47:04,VALID,1003.07,VALID,0,INVALID,163.639,VALID,0.100563,VALID,25.3,VALID,179,VALID,2.01055,
2011-04-17, 02:48:04,VALID,1003.07,VALID,0,INVALID,163.639,VALID,0,VALID,25.3,VALID,174,VALID,1.49414,
2011-04-17, 02:49:04,VALID,1003.05,VALID,0,INVALID,163.632,VALID,0,VALID,25.2786,VALID,240,VALID,0.823828,
2011-04-17, 02:50:04,VALID,1003.04,VALID,0,INVALID,163.639,VALID,0,VALID,25.2786,VALID,194,VALID,0.904688,
2011-04-17, 02:51:04,VALID,1003.04,VALID,0,INVALID,163.632,VALID,0,VALID,25.2981,VALID,169,VALID,1.32227,
2011-04-17, 02:52:04,VALID,1003.04,VALID,0,INVALID,163.632,VALID,0,VALID,25.2767,VALID,181,VALID,1.14805,
2011-04-17, 02:53:04,VALID,1003.04,VALID,0,INVALID,163.632,VALID,0.100563,VALID,25.2592,VALID,256,VALID,0.373828,
2011-04-17, 02:54:04,VALID,1003.02,VALID,0,INVALID,163.639,VALID,0,VALID,25.2592,VALID,169,VALID,0.867578,
2011-04-17, 02:55:04,VALID,1003,VALID,0,INVALID,163.632,VALID,0.100563,VALID,25.2592,VALID,181,VALID,0.0597656,
2011-04-17, 02:56:04,VALID,1003.02,VALID,0,INVALID,163.624,VALID,0.100563,VALID,25.2611,VALID,181,VALID,0.443359,
2011-04-17, 02:57:04,VALID,1003.03,VALID,0,INVALID,163.632,VALID,0,VALID,25.2397,VALID,9,VALID,0.91875,
2011-04-17, 02:58:04,VALID,1003.04,VALID,0,INVALID,163.632,VALID,0,VALID,25.2202,VALID,10,VALID,0.423828,
2011-04-17, 02:59:04,VALID,1003.02,VALID,0,INVALID,163.639,VALID,0,VALID,25.1832,VALID,27,VALID,0.673047,
2011-04-17, 03:00:04,VALID,1003.03,VALID,0,INVALID,163.647,VALID,0,VALID,25.1248,VALID,29,VALID,0.301172,
2011-04-17, 03:01:04,VALID,1002.99,VALID,0,INVALID,163.639,VALID,0,VALID,25.1053,VALID,29,VALID,0.154297,
2011-04-17, 03:02:04,VALID,1002.96,VALID,0,INVALID,163.624,VALID,0,VALID,25.0858,VALID,39,VALID,0.887891,
2011-04-17, 03:03:04,VALID,1002.96,VALID,0,INVALID,163.617,VALID,0,VALID,25.045,VALID,33,VALID,0.702734,
2011-04-17, 03:04:04,VALID,1002.92,VALID,0,INVALID,163.639,VALID,0,VALID,25.0255,VALID,28,VALID,0.224609,
2011-04-17, 03:05:04,VALID,1002.92,VALID,0,INVALID,163.647,VALID,0,VALID,25.0236,VALID,28,VALID,0.276953,
2011-04-17, 03:06:04,VALID,1002.89,VALID,0,INVALID,163.647,VALID,0,VALID,25.0644,VALID,237,VALID,0.745313,
2011-04-17, 03:07:04,VALID,1002.92,VALID,0,INVALID,163.624,VALID,0,VALID,25.0839,VALID,237,VALID,0.603516,
2011-04-17, 03:08:04,VALID,1002.92,VALID,0,INVALID,163.624,VALID,0,VALID,25.1423,VALID,228,VALID,0.287109,
2011-04-17, 03:09:04,VALID,1002.93,VALID,0,INVALID,163.624,VALID,0,VALID,25.2027,VALID,150,VALID,1.03672,
2011-04-17, 03:10:04,VALID,1002.94,VALID,0,INVALID,163.617,VALID,0,VALID,25.2007,VALID,291,VALID,0.583203,
2011-04-17, 03:11:04,VALID,1002.89,VALID,0,INVALID,163.609,VALID,0,VALID,25.2202,VALID,189,VALID,0.587891,
2011-04-17, 03:12:04,VALID,1002.93,VALID,0,INVALID,163.609,VALID,0,VALID,25.2611,VALID,216,VALID,0.379687,
2011-04-17, 03:13:04,VALID,1002.86,VALID,0,INVALID,163.586,VALID,0,VALID,25.3,VALID,209,VALID,1.16484,
2011-04-17, 03:14:04,VALID,1002.87,VALID,0,INVALID,155.66,VALID,0,VALID,25.337,VALID,222,VALID,1.13281,
2011-04-17, 03:15:04,VALID,1002.83,VALID,0,INVALID,150.998,VALID,0,VALID,25.376,VALID,207,VALID,0.402734,
2011-04-17, 03:16:04,VALID,1002.8,VALID,0,INVALID,141.005,VALID,0,VALID,25.4149,VALID,354,VALID,0.456641,
2011-04-17, 03:17:04,VALID,1002.8,VALID,0,INVALID,142.858,VALID,0,VALID,25.4558,VALID,210,VALID,0.451172,
2011-04-17, 03:18:04,VALID,1002.78,VALID,0,INVALID,132.086,VALID,0,VALID,25.4344,VALID,293,VALID,0.588281,
2011-04-17, 03:19:04,VALID,1002.77,VALID,0,INVALID,135.024,VALID,0,VALID,25.4539,VALID,196,VALID,0.137109,
2011-04-17, 03:20:04,VALID,1002.75,VALID,0,INVALID,136.366,VALID,0,VALID,25.452,VALID,109,VALID,0.536719,
2011-04-17, 03:21:04,VALID,1002.73,VALID,0,INVALID,146.04,VALID,0,VALID,25.4734,VALID,54,VALID,0.301953,
2011-04-17, 03:22:04,VALID,1002.73,VALID,0,INVALID,148.58,VALID,0,VALID,25.4753,VALID,264,VALID,0.264453,
2011-04-17, 03:23:04,VALID,1002.69,VALID,0,INVALID,162.93,VALID,0,VALID,25.4539,VALID,264,VALID,0.137891,
2011-04-17, 03:24:04,VALID,1002.72,VALID,0,INVALID,163.563,VALID,0,VALID,25.4734,VALID,207,VALID,0.348828,
2011-04-17, 03:25:04,VALID,1002.72,VALID,0,INVALID,163.563,VALID,0,VALID,25.4539,VALID,246,VALID,0.830469,
2011-04-17, 03:26:04,VALID,1002.7,VALID,0,INVALID,163.601,VALID,0,VALID,25.4734,VALID,266,VALID,0.180859,
2011-04-17, 03:27:04,VALID,1002.71,VALID,0,INVALID,163.578,VALID,0,VALID,25.4734,VALID,256,VALID,0.199219,
2011-04-17, 03:28:04,VALID,1002.7,VALID,0,INVALID,163.617,VALID,0,VALID,25.4734,VALID,315,VALID,0.777344,
2011-04-17, 03:29:04,VALID,1002.67,VALID,0,INVALID,163.594,VALID,0,VALID,25.4928,VALID,259,VALID,0.632422,
2011-04-17, 03:30:04,VALID,1002.69,VALID,0,INVALID,163.617,VALID,0,VALID,25.4928,VALID,333,VALID,0.548828,
2011-04-17, 03:31:04,VALID,1002.65,VALID,0,INVALID,163.632,VALID,0,VALID,25.5123,VALID,321,VALID,0.257422,
2011-04-17, 03:32:04,VALID,1002.66,VALID,0,INVALID,163.586,VALID,0,VALID,25.4948,VALID,229,VALID,0.205469,
2011-04-17, 03:33:04,VALID,1002.62,VALID,0,INVALID,163.617,VALID,0,VALID,25.4734,VALID,229,VALID,0.175,
2011-04-17, 03:34:04,VALID,1002.6,VALID,0,INVALID,163.632,VALID,0,VALID,25.4539,VALID,229,VALID,0.383203,
2011-04-17, 03:35:04,VALID,1002.59,VALID,0,INVALID,163.624,VALID,0,VALID,25.4539,VALID,229,VALID,0.357031,
2011-04-17, 03:36:04,VALID,1002.55,VALID,0,INVALID,163.601,VALID,0,VALID,25.4539,VALID,229,VALID,0.391797,
2011-04-17, 03:37:04,VALID,1002.52,VALID,0,INVALID,163.601,VALID,0.100563,VALID,25.4539,VALID,229,VALID,0.107031,
2011-04-17, 03:38:04,VALID,1002.52,VALID,0,INVALID,163.609,VALID,0,VALID,25.4539,VALID,229,VALID,0.20625,
2011-04-17, 03:39:04,VALID,1002.51,VALID,0,INVALID,163.594,VALID,0,VALID,25.4753,VALID,229,VALID,0,